When you browse on this site, cookies collect data to enhance your experience and personalize the content and advertising you see.
Visit our Privacy Policy to learn more. By continuing to use the site, you agree to this use of cookies and data.
EN

Hourly Weather Gölhisar

Today, 16 July, Thursday

Time Temperature Precipitation Wind Pressure Humidity
00:00 +19°C° 0 mm 0 mps 672 mmHg 50%
01:00 +20°C° 0 mm 1 mps 671 mmHg 51%
02:00 +20°C° 0 mm 1 mps 671 mmHg 53%
03:00 +19°C° 0 mm 1 mps 671 mmHg 57%
04:00 +19°C° 0 mm 1 mps 670 mmHg 61%
05:00 +18°C° 0 mm 1 mps 670 mmHg 65%
06:00 +21°C° 0 mm 1 mps 671 mmHg 57%
07:00 +24°C° 0 mm 1 mps 671 mmHg 49%
08:00 +24°C° 0 mm 0 mps 672 mmHg 41%
09:00 +28°C° 0 mm 1 mps 672 mmHg 35%
10:00 +30°C° 0 mm 1 mps 672 mmHg 28%
11:00 +32°C° 0 mm 1 mps 672 mmHg 22%
12:00 +32°C° 0 mm 2 mps 672 mmHg 20%
13:00 +34°C° 0 mm 3 mps 672 mmHg 19%
14:00 +35°C° 0 mm 4 mps 672 mmHg 17%
15:00 +34°C° 0 mm 4 mps 672 mmHg 19%
16:00 +33°C° 0 mm 5 mps 672 mmHg 21%
17:00 +33°C° 0 mm 5 mps 671 mmHg 23%
18:00 +29°C° 0 mm 4 mps 671 mmHg 28%
19:00 +27°C° 0 mm 3 mps 670 mmHg 34%
20:00 +24°C° 0 mm 1 mps 670 mmHg 40%
21:00 +23°C° 0 mm 1 mps 670 mmHg 42%
22:00 +22°C° 0 mm 1 mps 670 mmHg 44%
23:00 +22°C° 0 mm 1 mps 669 mmHg 47%

Tomorrow, 17 July, Friday

Time Temperature Precipitation Wind Pressure Humidity
00:00 +21°C° 0 mm 1 mps 669 mmHg 49%
01:00 +20°C° 0 mm 2 mps 669 mmHg 52%
02:00 +19°C° 0 mm 2 mps 669 mmHg 55%
03:00 +19°C° 0 mm 2 mps 668 mmHg 57%
04:00 +18°C° 0 mm 2 mps 668 mmHg 59%
05:00 +18°C° 0 mm 2 mps 668 mmHg 62%
06:00 +20°C° 0 mm 2 mps 668 mmHg 55%
07:00 +23°C° 0 mm 2 mps 669 mmHg 49%
08:00 +25°C° 0 mm 2 mps 670 mmHg 43%
09:00 +27°C° 0 mm 2 mps 670 mmHg 38%
10:00 +29°C° 0 mm 1 mps 670 mmHg 33%
11:00 +31°C° 0 mm 1 mps 671 mmHg 28%
12:00 +32°C° 0 mm 2 mps 671 mmHg 26%
13:00 +34°C° 0 mm 2 mps 671 mmHg 24%
14:00 +35°C° 0 mm 3 mps 671 mmHg 21%
15:00 +34°C° 0 mm 3 mps 671 mmHg 23%
16:00 +33°C° 0 mm 4 mps 670 mmHg 25%
17:00 +33°C° 0 mm 4 mps 670 mmHg 26%
18:00 +30°C° 0 mm 3 mps 670 mmHg 30%
19:00 +27°C° 0 mm 2 mps 670 mmHg 33%
20:00 +25°C° 0 mm 2 mps 669 mmHg 37%
21:00 +24°C° 0 mm 1 mps 669 mmHg 39%
22:00 +23°C° 0 mm 1 mps 669 mmHg 42%
23:00 +20°C° 0 mm 0 mps 669 mmHg 44%

Day after tomorrow, 18 July, Saturday

Time Temperature Precipitation Wind Pressure Humidity
00:00 +22°C° 0 mm 1 mps 669 mmHg 45%
01:00 +21°C° 0 mm 1 mps 669 mmHg 46%
02:00 +21°C° 0 mm 1 mps 669 mmHg 46%
03:00 +21°C° 0 mm 1 mps 668 mmHg 48%
04:00 +20°C° 0 mm 1 mps 668 mmHg 50%
05:00 +20°C° 0 mm 1 mps 668 mmHg 51%
06:00 +23°C° 0 mm 1 mps 669 mmHg 45%
07:00 +26°C° 0 mm 1 mps 670 mmHg 38%
08:00 +28°C° 0 mm 1 mps 671 mmHg 32%
09:00 +30°C° 0 mm 1 mps 671 mmHg 29%
10:00 +32°C° 0 mm 2 mps 671 mmHg 26%
11:00 +34°C° 0 mm 2 mps 672 mmHg 23%
12:00 +35°C° 0 mm 3 mps 672 mmHg 22%
13:00 +35°C° 0 mm 3 mps 672 mmHg 22%
14:00 +36°C° 0 mm 4 mps 672 mmHg 21%
15:00 +35°C° 0 mm 4 mps 672 mmHg 23%
16:00 +34°C° 0 mm 4 mps 672 mmHg 26%
17:00 +33°C° 0 mm 4 mps 671 mmHg 28%
18:00 +30°C° 0 mm 3 mps 671 mmHg 34%
19:00 +27°C° 0 mm 2 mps 671 mmHg 40%
20:00 +25°C° 0 mm 1 mps 671 mmHg 46%
21:00 +24°C° 0 mm 1 mps 671 mmHg 48%
22:00 +23°C° 0 mm 1 mps 671 mmHg 51%
23:00 +20°C° 0 mm 0 mps 671 mmHg 53%

19 July, Sunday

Time Temperature Precipitation Wind Pressure Humidity
00:00 +20°C° 0 mm 0 mps 671 mmHg 54%
01:00 +20°C° 0 mm 0 mps 670 mmHg 55%
02:00 +19°C° 0 mm 0 mps 670 mmHg 56%
03:00 +19°C° 0 mm 0 mps 670 mmHg 57%
04:00 +18°C° 0 mm 0 mps 670 mmHg 59%
05:00 +20°C° 0 mm 1 mps 670 mmHg 61%
06:00 +21°C° 0 mm 0 mps 671 mmHg 53%
07:00 +24°C° 0 mm 0 mps 671 mmHg 45%
08:00 +26°C° 0 mm 0 mps 672 mmHg 37%
09:00 +30°C° 0 mm 1 mps 673 mmHg 32%
10:00 +32°C° 0 mm 1 mps 673 mmHg 27%
11:00 +35°C° 0 mm 2 mps 673 mmHg 22%
12:00 +35°C° 0 mm 2 mps 674 mmHg 21%
13:00 +36°C° 0 mm 3 mps 674 mmHg 21%
14:00 +36°C° 0 mm 3 mps 674 mmHg 20%
15:00 +35°C° 0 mm 4 mps 673 mmHg 23%
16:00 +35°C° 0 mm 4 mps 673 mmHg 25%
17:00 +34°C° 0 mm 4 mps 673 mmHg 28%
18:00 +30°C° 0 mm 3 mps 672 mmHg 35%
19:00 +27°C° 0 mm 2 mps 672 mmHg 41%
20:00 +25°C° 0 mm 1 mps 672 mmHg 47%
21:00 +24°C° 0 mm 1 mps 672 mmHg 50%
22:00 +23°C° 0 mm 1 mps 672 mmHg 52%
23:00 +20°C° 0 mm 0 mps 672 mmHg 54%

20 July, Monday

Time Temperature Precipitation Wind Pressure Humidity
00:00 +20°C° 0 mm 0 mps 671 mmHg 55%
01:00 +19°C° 0 mm 0 mps 671 mmHg 56%
02:00 +19°C° 0 mm 0 mps 671 mmHg 56%
03:00 +21°C° 0 mm 1 mps 671 mmHg 58%
04:00 +20°C° 0 mm 1 mps 670 mmHg 60%
05:00 +20°C° 0 mm 1 mps 670 mmHg 61%
06:00 +23°C° 0 mm 1 mps 671 mmHg 54%
07:00 +23°C° 0 mm 0 mps 672 mmHg 47%
08:00 +26°C° 0 mm 0 mps 672 mmHg 39%
09:00 +30°C° 0 mm 1 mps 673 mmHg 34%
10:00 +31°C° 0 mm 1 mps 673 mmHg 28%
11:00 +33°C° 0 mm 1 mps 674 mmHg 23%
12:00 +35°C° 0 mm 2 mps 674 mmHg 21%
13:00 +36°C° 0 mm 2 mps 674 mmHg 20%
14:00 +36°C° 0 mm 3 mps 674 mmHg 18%
15:00 +36°C° 0 mm 4 mps 673 mmHg 20%
16:00 +35°C° 0 mm 4 mps 673 mmHg 23%
17:00 +34°C° 0 mm 5 mps 673 mmHg 25%
18:00 +32°C° 0 mm 4 mps 673 mmHg 32%
19:00 +28°C° 0 mm 3 mps 672 mmHg 39%
20:00 +25°C° 0 mm 1 mps 672 mmHg 46%
21:00 +25°C° 0 mm 1 mps 672 mmHg 47%
22:00 +24°C° 0 mm 1 mps 672 mmHg 49%
23:00 +23°C° 0 mm 1 mps 672 mmHg 51%

21 July, Tuesday

Time Temperature Precipitation Wind Pressure Humidity
00:00 +23°C° 0 mm 1 mps 672 mmHg 52%
01:00 +21°C° 0 mm 2 mps 671 mmHg 54%
02:00 +21°C° 0 mm 2 mps 671 mmHg 56%
03:00 +21°C° 0 mm 2 mps 671 mmHg 58%
04:00 +20°C° 0 mm 2 mps 671 mmHg 59%
05:00 +20°C° 0 mm 2 mps 670 mmHg 61%
06:00 +23°C° 0 mm 2 mps 671 mmHg 55%
07:00 +25°C° 0 mm 2 mps 671 mmHg 49%
08:00 +27°C° 0 mm 3 mps 672 mmHg 43%
09:00 +29°C° 0 mm 3 mps 672 mmHg 38%
10:00 +31°C° 0 mm 3 mps 673 mmHg 33%
11:00 +33°C° 0 mm 3 mps 673 mmHg 28%
12:00 +34°C° 0 mm 3 mps 673 mmHg 25%
13:00 +35°C° 0 mm 4 mps 673 mmHg 22%
14:00 +36°C° 0 mm 4 mps 673 mmHg 19%
15:00 +36°C° 0 mm 4 mps 673 mmHg 18%
16:00 +35°C° 0 mm 5 mps 672 mmHg 17%
17:00 +35°C° 0 mm 5 mps 672 mmHg 16%
18:00 +32°C° 0 mm 4 mps 672 mmHg 20%
19:00 +29°C° 0 mm 4 mps 671 mmHg 23%
20:00 +26°C° 0 mm 3 mps 671 mmHg 26%
21:00 +25°C° 0 mm 3 mps 671 mmHg 33%
22:00 +24°C° 0 mm 3 mps 671 mmHg 40%
23:00 +23°C° 0 mm 2 mps 671 mmHg 46%
Show more